Powrót do katalogu

STARLINK-5290

AktywnyŁącznośćVLEO
NORAD 54157·PAYLOAD·🇺🇸 United States

Wystrzelony Oct 28, 2022 z Vandenberg Space Force Base

Loading…

Następne Przeloty (najbliższe 24 godziny)

TLE

ŚwieżeSource: CelesTrak SupGP

Epoka: Sep 15, 2026, 02:48 UTC

1 54157C 22141A   26258.11715278  .00687380  00000+0  26723-1 0  2587
2 54157  53.1611 242.3959 0001449  83.2305 316.8962 15.25167744    12

Śledź STARLINK-5290 w czasie rzeczywistym z AllMySat

Download on the App Store